Asteroid 2010 FY80
(Preview)
Solar System
0
538
Orbital elements: 2010 FY80 Earth MOID = 0.1975 AU Epoch 2010 Mar. 25.0 TT = JDT 2455280.5 MPC M 357.12451 (2000.0) P Q n 0.05387242 Peri. 42.24959 -0.91406110 +0.38006062 a 6.9431793 Node 158.77203 -0.38791583 -0.92115008 e 0.8415615 Incl. 23.01872 +0.11837910 -0.08388360 P 18.3 H 19.7 G 0.15 Fr...
Asteroid 2010 FZ80
(Preview)
Solar System
0
539
Orbital elements: 2010 FZ80 Earth MOID = 0.2612 AU Epoch 2010 Mar. 25.0 TT = JDT 2455280.5 MPC M 344.92146 (2000.0) P Q n 0.21910552 Peri. 345.91780 -0.27053686 +0.86822961 a 2.7250041 Node 267.06779 -0.83805520 -0.42501171 e 0.7318089 Incl. 24.61145 -0.47378612 +0.25601248 P 4.50 H 20.6 G 0.15 F...
Asteroid 2010 FB81
(Preview)
Solar System
0
523
Orbital elements: 2010 FB81 Earth MOID = 0.0401 AU Epoch 2010 Mar. 25.0 TT = JDT 2455280.5 MPC M 16.96815 (2000.0) P Q n 0.57619886 Peri. 40.60390 -0.75022121 -0.65240846 a 1.4302802 Node 98.33635 +0.57505874 -0.72398446 e 0.3086463 Incl. 6.23063 +0.32630596 -0.22407520 P 1.71 H 22.5 G 0.15 From 1...
Drumlanrig Roman fort
(Preview)
KMZ
0
3299
This Roman fort is situated on the banks of the Nith where it controls the river-crossing. Aerial survey has revealed the parch-marks of at least five ditches on the north-west and north-east sides; there is evidence also of an annexe or out-work on the north-east. The Roman fort is located about 350...
Electroweak star
(Preview)
Astronomy News
5
1028
Dying, for stars, has just gotten more complicated. For some stellar objects, the final phase before or instead of collapsing into a black hole may be what a group of physicists is calling an electroweak star. Glenn Starkman, a professor of physics at Case Western Reserve University, together with...
VStar
(Preview)
Computers
0
807
VStar: A new light curve analysis tool VStar is a multi-platform, easy-to-use variable star data visualization and analysis tool. Data for a star can be read from the AAVSO database or from a text file of your own creation. It will plot the data on a light curve then you can choose to superimpose means d...
Comet C/2010 A3 (HILL)
(Preview)
Solar System
4
678
Orbital elements: C/2010 A3 (Hill) T 2010 Mar. 27.292 TT MPC q 1.65798 (2000.0) P Q Peri. 38.455 -0.193875 -0.952885 Node 63.847 +0.823481 -0.287316 e 1.0 Incl. 15.064 +0.533189 +0.097262 From 38 observations 2010 Jan. 8-9. [url=http://www.cfa.harvard.edu/mpec/K10/K10A48.html]MPEC
X Aquilae
(Preview)
Stars/galaxy News
0
2580
Maxima of long period variable X Aquilae on the 3rd April, 2010. Magnitude: 8.9-14.9 Type: Mira Position (2000): RA 19 51 29.80, Dec +04 27 51.6
Quarks
(Preview)
Physics News
1
2998
Title: Stable quarks of the 4th family? Authors: K. Belotsky, M. Khlopov, K. Shibaev Existence of metastable quarks of new generation can be embedded into phenomenology of heterotic string together with new long range interaction, which only this new generation possesses. We discuss pr...
Sulawesi Fireball
(Preview)
Meteorite News
9
1112
Blast may be result of falling space waste or meteorite An expert from the National Aeronautics and Space Agency (Lapan) said Thursday a blast that had frightened residents of Pallete village in the South Sulawesi regency of Bone earlier in the day might have come from falling space waste or a meteor...
Jade lady works the shuttles
(Preview)
Trash
0
602
* 1. Opening of Tai Chi * 2. Grasp Sparrow's Tail: Left * 3. Grasp Sparrow's Tail: Right * 4. Single Whip * 5. Step Up and Raise Hands * 6. White Crane Spreads its Wings * 7. Brush Knee, Twist Step: Right * 8. Play the Pei Pa * 9. Brush Knee, Twist Step: Right * 10. Brush Knee, Twist Step: Left * 11. Brush Knee, Twi...
Piha vapour trails
(Preview)
Meteorite News
0
543
A mystery explosion in the sky has kept residents at a West Auckland beach guessing. Piha residents describe seeing what looked like trails of fire falling from the sky. Read more
Stone circles
(Preview)
Events
1
5513
[url=http://www.pressandjournal.co.uk/Article.aspx/1447205?UserK...
SE Portland Boom
(Preview)
Meteorite News
2
696
A loud mystery boom baffled many people in Portland Sunday and authorities were still trying to figure out what it was on Monday. There were numerous reports of a loud explosion at 8:05 p.m. Most of the reports were clustered in Southeast Portland. [url=http://www.kgw.com/news/local/What-was-...
Bolivian space agency
(Preview)
Mission News
3
864
Bolivia says it has created a space agency to build and launch the poor South American country's first satellite. Read more
«First < 1
1946 1947 1948 1949 1950
2461 > Last» | Page
